Flag for Hong Kong Weather past 2 weeks in Kowloon, Hong Kong

Now
66 °F

Passing clouds.


Feels Like: 66 °F
Forecast: 62 / 69 °F
Wind: 21 mph from East

Location: National Airport

Current Time: Jan 28, 2015 at 10:24:12 AM

Latest Report: Jan 28, 2015 at 10:00 AM


Visibility: N/A

Pressure: 30.09 "Hg

Humidity: 64%

Dew point: 54 °F

Location of KowloonLocation

Historic Weather in Kowloon — Graph

°F

Kowloon temperature yesterday

Maximum temperature yesterday: 72 °F (at 10:30 AM)
Minimum temperature yesterday: 64 °F (at 11:30 PM)
Average temperature yesterday: 68 °F

Past Weeks' High & Low Weather Summary

 TemperatureHumidityPressure
High73 °F (Jan 22, 1:00 PM)94% (Jan 13, 12:30 PM)30.33 "Hg (Jan 13, 12:30 PM)
Low52 °F (Jan 14, 3:00 AM)22% (Jan 22, 1:30 PM)29.98 "Hg (Jan 27, 3:00 PM)
Average63 °F61%30.14 "Hg
* Reported Jan 13 9:00 AM — Jan 28 9:00 AM, Kowloon, Weather by CustomWeather, © 2014

Note: Actual official high and low records may vary slightly from our data, if they occured in-between our weather recording intervals... More about our weather records

Advertising

Kowloon weather history for previous 24 hours

 ConditionsComfort  
Time TempWeatherWind HumidityBarometerVisibility
9:00 AM
Jan 28
64 °FPassing clouds.21 mph68%30.09 "HgN/A
8:30 AM64 °FPassing clouds.21 mph73%30.09 "HgN/A
8:00 AM63 °FPassing clouds.23 mph77%30.09 "HgN/A
7:30 AM63 °FPassing clouds.21 mph77%30.07 "HgN/A
7:00 AM63 °FPassing clouds.22 mph77%30.07 "HgN/A
6:30 AM63 °FPassing clouds.21 mph77%30.04 "HgN/A
6:00 AM63 °FPassing clouds.21 mph77%30.04 "HgN/A
5:30 AM63 °FPassing clouds.20 mph77%30.04 "HgN/A
5:00 AM63 °FPassing clouds.17 mph77%30.04 "HgN/A
4:30 AM63 °FPassing clouds.17 mph77%30.04 "HgN/A
4:00 AM63 °FPassing clouds.17 mph77%30.04 "HgN/A
3:30 AM63 °FPassing clouds.17 mph83%30.04 "HgN/A
3:00 AM63 °FPassing clouds.16 mph83%30.04 "HgN/A
2:30 AM63 °FPassing clouds.16 mph83%30.04 "Hg6 mi
2:00 AM63 °FPassing clouds.16 mph83%30.04 "Hg6 mi
1:30 AM64 °FPassing clouds.18 mph78%30.04 "Hg5 mi
1:00 AM64 °FPassing clouds.18 mph78%30.04 "Hg5 mi
12:30 AM64 °FPassing clouds.21 mph78%30.04 "Hg5 mi
12:00 AM64 °FPassing clouds.18 mph83%30.04 "Hg5 mi
11:30 PM
Jan 27
64 °FPassing clouds.15 mph83%30.04 "Hg6 mi
11:00 PM66 °FPassing clouds.16 mph78%30.04 "Hg6 mi
10:30 PM66 °FPassing clouds.18 mph78%30.04 "Hg6 mi
10:00 PM66 °FPassing clouds.15 mph78%30.04 "Hg6 mi
9:30 PM66 °FPassing clouds.16 mph78%30.04 "Hg6 mi
9:00 PM66 °FPassing clouds.16 mph78%30.04 "Hg5 mi
8:30 PM66 °FPassing clouds.17 mph78%30.04 "Hg5 mi
8:00 PM66 °FPassing clouds.13 mph73%30.04 "Hg5 mi
7:30 PM66 °FPassing clouds.14 mph73%30.01 "Hg5 mi
7:00 PM66 °FPassing clouds.15 mph73%30.01 "Hg5 mi
6:30 PM66 °FPassing clouds.14 mph73%30.01 "Hg4 mi
6:00 PM68 °FPassing clouds.15 mph69%29.98 "Hg4 mi
5:30 PM68 °FClear.14 mph69%29.98 "Hg5 mi
5:00 PM70 °FClear.15 mph64%29.98 "Hg5 mi
4:30 PM70 °FPassing clouds.15 mph64%29.98 "Hg5 mi
4:00 PM70 °FPassing clouds.16 mph64%29.98 "Hg5 mi
3:30 PM70 °FScattered clouds.17 mph64%29.98 "Hg4 mi
3:00 PM70 °FScattered clouds.16 mph64%29.98 "Hg4 mi
2:30 PM70 °FScattered clouds.16 mph64%30.01 "Hg4 mi
2:00 PM72 °FScattered clouds.15 mph61%30.01 "Hg5 mi
1:30 PM72 °FScattered clouds.20 mph61%30.01 "Hg6 mi
1:00 PM72 °FScattered clouds.17 mph61%30.04 "HgN/A
12:00 PM72 °FScattered clouds.16 mph61%30.07 "HgN/A
11:30 AM72 °FScattered clouds.17 mph61%30.09 "HgN/A
11:00 AM70 °FPassing clouds.17 mph64%30.09 "HgN/A
10:30 AM72 °FPassing clouds.14 mph65%30.09 "HgN/A
10:00 AM70 °FPassing clouds.14 mph69%30.12 "Hg5 mi
Weather by CustomWeather, © 2014

See weather overviewHow to use our weather pages